Wind_Speed
4 4 3 3 4 5 2 2 2 2 2 1 3 1 4 4 2 3 5 5 4 2 0 3 3 2 4 8 9 8 5 2 4 4 3 2 9 15 19 25 29 28 27 23 23 22 19 20 19 18 20 20 20 21 22 22 23 22 23 24 24 24 24 25 25 25 25 25 24 23 22 22 21 20 20 19 18 18 17 16 16 17 18 17 16 15 15 15 14 13 13 13 14 14 14 15 15
3 3 3 4 3 4 2 2 3 2 3 2 4 4 4 3 1 4 8 5 2 1 4 4 5 6 8 10 9 7 6 4 4 3 2 10 14 14 20 26 28 28 26 24 23 23 22 23 23 21 20 21 20 20 21 22 23 22 22 22 22 22 22 22 22 22 22 22 22 22 21 21 20 19 18 18 18 17 17 16 16 16 17 18 16 15 14 13 13 13 13 13 13 14 14 14 16
3 2 3 5 3 2 1 3 2 1 3 2 5 4 3 1 1 4 6 2 2 2 3 3 3 4 4 6 4 4 2 3 7 5 5 14 12 13 23 25 27 27 25 24 23 22 22 23 25 25 23 22 21 20 20 21 22 21 21 20 19 19 20 20 20 21 21 21 21 21 20 20 19 18 17 17 16 16 16 15 16 16 16 17 16 15 14 13 12 12 12 13 14 14 14 14 17
3 3 3 5 2 3 3 3 2 4 3 4 3 5 3 4 2 4 3 2 3 1 2 4 4 3 3 7 3 3 4 4 6 5 5 10 11 18 25 24 26 26 25 23 22 22 22 23 24 26 25 24 22 21 20 20 21 21 20 19 18 18 18 18 18 20 20 20 20 20 19 18 18 17 16 16 15 16 16 15 15 15 15 15 15 15 14 13 12 12 12 13 14 14 14 15 16
3 4 3 2 2 1 3 2 2 3 4 4 2 6 3 5 2 2 3 4 4 0 4 3 3 4 4 6 1 2 5 5 5 4 5 10 17 23 23 23 26 25 24 23 22 22 22 23 23 24 25 25 24 22 20 20 20 19 19 19 18 17 17 17 17 18 18 19 19 19 18 17 16 15 15 15 15 15 15 15 14 15 14 14 14 14 13 13 12 12 12 13 14 14 14 14 14
4 5 2 2 2 1 3 2 2 3 4 4 2 6 4 5 5 2 5 7 4 3 4 3 2 1 3 3 2 3 2 4 4 5 7 14 22 23 23 25 26 24 24 23 22 22 23 23 23 23 23 24 25 23 21 20 19 18 18 17 16 16 16 16 17 17 17 18 18 18 17 16 15 14 14 14 15 15 15 14 13 13 13 14 13 12 13 13 12 12 12 13 13 13 14 13 13
5 4 2 3 1 1 4 3 4 4 4 4 4 6 6 5 6 4 4 5 2 3 4 4 4 4 2 2 2 5 4 4 6 8 12 18 23 23 24 26 26 24 23 23 22 22 23 23 23 22 21 22 23 23 22 21 19 17 16 16 15 14 15 16 16 17 16 17 17 17 16 15 14 14 14 14 14 14 14 13 12 12 13 13 11 11 12 12 12 13 13 13 11 11 12 13 12
4 2 1 4 1 2 4 3 4 3 3 4 5 7 10 9 3 3 3 3 2 1 4 5 5 6 1 2 1 4 6 8 11 14 19 22 23 23 24 26 25 23 23 23 23 23 22 21 22 22 21 21 21 22 21 21 19 17 15 14 14 13 14 15 16 16 16 16 15 15 15 14 14 14 13 13 13 12 13 13 12 12 12 11 10 11 11 11 12 12 12 12 12 11 11 11 11
2 1 0 3 2 1 1 2 3 3 4 5 5 8 11 10 4 3 5 4 2 3 4 4 5 6 4 4 3 1 6 11 17 19 22 22 22 23 23 25 25 22 23 23 23 22 20 20 20 21 21 21 21 21 20 20 19 17 15 14 13 12 13 15 15 15 15 15 15 14 14 14 13 13 13 12 11 11 11 11 11 10 10 10 9 9 9 9 10 11 11 11 11 11 10 9 9
2 2 2 2 3 1 2 2 2 3 5 5 6 10 11 9 5 5 7 6 5 6 3 4 7 8 7 5 2 1 6 16 23 22 20 22 21 23 23 23 24 23 24 24 23 22 20 19 19 19 20 21 21 20 20 19 18 17 15 13 12 12 13 14 15 15 15 15 15 14 14 13 13 12 12 12 11 10 10 10 10 9 8 8 8 8 7 7 8 9 10 10 10 10 9 8 8
2 2 2 3 3 3 4 3 3 3 5 5 6 10 8 7 4 3 5 6 4 7 6 5 8 8 8 4 2 4 11 19 23 22 19 22 21 22 23 23 23 23 24 24 23 22 21 20 19 19 19 20 20 20 19 18 17 16 14 13 11 12 14 14 15 14 14 14 14 14 13 13 12 12 12 11 10 10 10 10 10 10 9 8 7 7 6 6 6 7 8 9 9 9 9 8 7
2 2 4 4 3 3 4 2 3 5 6 4 5 7 3 3 1 3 5 7 5 8 5 3 7 7 6 3 2 6 12 15 19 22 21 22 21 21 23 23 23 23 24 24 23 23 22 21 20 19 18 18 19 19 19 18 17 15 14 13 12 14 14 14 14 14 14 14 14 14 13 13 12 11 11 10 10 9 9 9 9 10 10 8 7 7 6 6 7 7 8 9 9 9 10 9 7
3 2 4 2 3 3 3 2 3 4 5 3 4 8 5 4 3 4 7 8 6 7 2 4 9 5 4 4 3 7 9 13 18 22 23 23 22 22 23 24 24 23 23 24 23 23 22 22 21 20 19 18 18 19 18 17 16 15 14 13 14 15 15 14 14 14 13 13 14 14 14 13 12 11 10 10 9 9 9 8 8 9 10 9 8 7 7 7 8 8 10 10 10 10 10 10 8
3 3 4 2 1 3 3 1 1 1 3 5 3 8 6 4 3 3 8 9 3 2 2 4 8 4 4 5 3 5 8 15 21 22 23 22 22 23 24 25 24 24 23 23 23 22 21 22 21 20 20 19 18 18 18 18 16 16 15 14 15 15 15 15 14 13 14 14 14 14 13 12 11 10 9 9 9 8 8 7 6 7 9 9 8 7 7 7 8 9 11 10 10 10 11 10 9
3 2 4 2 1 1 2 1 2 3 3 4 2 8 6 3 3 4 5 7 2 1 4 5 3 2 5 7 4 6 11 18 22 21 22 22 23 24 24 25 24 24 23 22 21 22 22 22 22 21 20 20 20 20 20 19 18 17 16 15 15 15 15 14 13 13 14 14 13 13 12 11 10 9 9 8 8 8 8 7 6 7 9 8 8 7 7 7 8 9 10 9 9 10 10 10 9
2 3 4 2 1 1 2 2 2 2 4 4 2 7 7 6 5 4 2 3 5 3 4 3 3 2 5 6 6 13 17 21 22 22 22 22 22 22 22 23 22 22 22 21 21 21 22 23 23 21 21 22 23 22 21 20 19 17 17 16 16 15 14 13 13 13 13 13 12 11 10 10 9 8 8 8 8 7 7 7 6 7 8 8 8 8 7 7 8 9 8 7 7 8 9 8 8
2 4 4 0 2 3 3 3 3 2 5 6 4 7 6 6 5 3 4 7 7 5 5 4 4 2 2 5 16 24 23 23 24 23 22 21 20 19 18 19 19 20 20 20 20 20 20 21 22 21 21 22 23 23 21 20 18 17 17 16 15 14 14 13 13 13 12 12 11 10 9 9 8 8 7 7 7 7 7 7 7 7 7 7 7 7 7 7 7 8 8 6 6 7 8 7 7
3 3 2 2 3 3 5 5 5 2 3 5 6 4 3 3 2 2 5 8 5 7 6 6 6 7 8 13 25 28 25 26 25 23 20 18 17 16 15 17 18 18 19 18 19 19 19 20 21 21 21 21 21 21 21 20 18 17 17 16 15 14 13 12 12 12 11 11 10 9 8 7 7 7 6 6 7 7 7 7 7 7 7 7 7 7 7 7 7 8 7 7 7 7 7 7 6
2 3 2 3 5 4 5 6 5 2 3 6 7 3 3 1 4 3 3 2 2 6 5 6 9 9 11 15 23 25 26 26 23 22 19 17 17 16 15 17 19 19 19 19 19 19 18 20 21 21 21 20 20 20 21 20 18 18 18 17 16 15 13 12 12 11 10 9 8 7 7 6 5 5 5 5 5 6 6 6 6 7 7 6 6 7 6 6 7 7 7 7 7 6 6 6 5
2 3 1 5 6 4 5 5 6 4 2 6 8 4 6 4 4 2 5 4 1 3 3 6 9 10 12 13 18 22 24 22 22 21 18 18 17 18 18 19 21 21 21 21 20 19 20 21 20 20 20 20 20 20 20 20 19 18 18 17 16 16 14 13 12 10 9 7 7 6 6 5 5 5 5 5 5 5 5 5 5 6 7 7 6 6 6 6 5 6 6 6 5 4 4 4 4
1 3 4 5 4 2 6 8 8 5 1 3 5 5 7 6 2 3 8 7 1 5 6 7 12 14 14 14 15 18 19 17 19 19 18 19 18 19 19 19 21 21 21 21 20 21 22 22 21 21 20 20 21 20 21 21 20 19 18 17 16 16 15 13 12 11 9 8 7 7 6 5 5 5 5 5 5 4 5 5 5 6 7 7 7 6 6 6 5 5 5 4 4 3 3 2 4
1 3 5 5 5 2 7 7 6 5 1 2 4 4 4 4 4 3 7 5 4 6 7 8 13 16 14 15 15 14 15 14 16 17 18 20 20 19 17 18 19 19 21 21 20 21 23 22 22 23 20 19 21 20 21 21 20 19 18 17 16 15 14 13 12 10 9 8 8 7 7 6 5 5 4 4 4 4 4 5 6 6 6 7 7 6 6 6 5 4 4 4 4 4 3 2 3
2 4 3 4 5 3 5 3 4 3 1 5 3 2 2 3 3 1 3 3 6 5 5 10 14 15 14 15 14 13 14 14 14 17 18 18 18 17 17 19 18 19 20 20 19 19 19 18 17 18 18 19 20 20 21 19 19 19 18 16 15 15 13 12 11 10 9 9 8 7 7 6 6 5 5 4 4 3 4 6 6 5 5 6 6 5 5 5 5 4 3 3 4 4 4 2 3
3 3 4 4 5 5 7 3 3 3 5 8 2 4 5 3 3 1 1 4 4 1 7 14 15 14 14 14 13 14 14 13 14 17 16 15 16 16 17 17 18 18 18 17 17 16 13 11 11 13 15 19 20 19 19 18 17 18 16 15 14 14 12 11 10 10 9 9 8 7 7 6 6 6 5 5 4 4 3 5 6 6 6 6 6 6 5 5 5 4 3 3 3 3 3 3 3
3 5 4 2 3 6 7 5 6 6 7 6 1 6 8 6 2 3 2 4 3 6 10 14 15 13 12 13 13 13 12 11 13 14 13 13 16 16 16 17 17 18 17 16 17 16 16 15 15 15 16 19 19 18 18 16 16 16 16 15 14 13 12 11 10 10 9 8 8 8 7 7 6 6 6 5 5 4 5 5 6 6 6 6 6 6 5 5 4 4 3 2 2 1 1 2 3
5 6 4 3 4 6 5 6 7 5 5 3 2 8 9 3 4 1 2 2 5 9 12 14 14 12 10 11 12 12 11 11 11 12 13 14 17 17 18 19 19 19 16 14 16 17 19 20 18 18 18 18 17 16 16 15 14 14 14 14 13 12 11 11 10 9 9 8 8 7 7 6 6 5 6 6 5 5 6 5 5 5 5 6 5 5 4 4 4 3 3 3 2 1 1 1 1
5 5 4 6 6 6 2 5 6 2 4 5 7 7 6 2 2 2 2 6 8 11 14 13 11 10 10 10 10 10 9 11 12 12 12 13 16 18 20 21 19 14 10 9 13 16 17 18 18 18 19 18 16 15 15 14 13 13 13 13 13 12 10 10 10 9 9 9 8 7 6 6 6 5 5 5 5 5 5 5 4 4 4 4 3 3 4 4 4 4 3 3 2 1 1 1 1
4 4 3 6 5 6 3 4 6 1 3 7 9 4 2 4 1 4 5 8 9 12 14 12 9 8 10 10 8 6 6 9 12 12 12 13 17 20 20 19 16 13 11 11 13 14 16 17 17 18 19 18 17 15 14 13 12 12 13 13 12 12 10 9 10 9 9 9 9 9 8 8 7 6 6 6 5 5 5 5 4 4 3 3 3 3 4 5 5 5 4 4 3 2 1 1 1
1 3 2 7 7 6 5 4 4 4 3 6 9 1 2 0 4 3 8 10 8 11 13 12 9 7 9 9 7 5 5 8 10 11 13 15 17 18 17 16 18 19 21 20 16 15 16 16 17 18 18 18 16 13 12 12 11 11 12 12 11 11 10 9 9 9 10 10 10 10 9 9 8 6 7 6 5 4 4 5 5 5 5 4 4 4 6 6 6 6 6 5 4 3 2 2 0
1 2 1 4 7 6 6 1 2 4 3 5 8 2 5 6 8 4 10 12 11 12 12 10 7 8 9 7 6 5 5 6 8 10 13 15 14 14 14 17 20 21 22 19 17 16 16 16 16 17 17 16 14 12 12 11 10 10 10 10 10 10 10 9 8 8 9 9 9 7 7 8 6 6 6 5 5 5 5 6 6 6 5 5 5 6 7 8 7 7 7 6 5 4 3 2 0
1 1 2 2 1 4 8 2 4 4 2 5 7 3 6 7 8 6 10 12 14 13 13 11 8 8 9 8 7 6 4 5 7 9 12 12 11 12 15 17 16 16 17 15 15 15 15 16 16 17 16 15 14 13 13 11 9 9 8 8 8 8 7 8 7 6 6 6 6 6 6 6 5 5 6 6 6 6 6 7 6 5 4 6 7 8 8 8 8 7 7 7 6 5 4 3 1
3 1 2 3 1 4 9 4 6 6 2 3 6 3 5 7 7 9 11 10 11 11 12 12 9 9 8 7 7 5 3 5 7 9 11 11 12 14 15 15 13 13 15 15 14 14 16 17 16 17 16 15 15 14 12 10 9 8 7 7 6 5 5 5 5 5 5 5 6 6 5 5 5 5 4 5 6 6 7 6 6 6 6 7 8 9 9 9 9 8 9 8 7 6 4 3 2
4 2 2 2 1 2 6 3 5 6 1 1 5 3 3 5 5 9 11 11 9 9 11 12 12 10 7 5 5 5 4 4 6 9 12 12 12 14 14 15 16 16 16 17 16 17 19 18 17 17 17 17 15 15 13 11 9 8 7 5 4 3 3 4 4 3 4 4 4 4 4 3 4 4 3 5 5 5 7 6 6 7 7 9 11 9 9 9 8 8 9 9 8 6 5 3 2
4 2 0 3 2 1 3 5 5 2 2 3 3 5 5 5 3 9 11 12 9 9 11 12 12 9 5 5 5 6 5 5 7 9 13 13 13 15 14 16 20 20 19 19 18 20 22 21 19 18 18 17 16 15 13 11 10 8 7 5 3 3 2 2 2 2 2 2 1 2 3 3 4 4 4 4 4 5 6 7 7 8 9 11 11 8 7 8 6 7 9 9 8 6 5 4 3
2 1 1 2 3 2 3 5 4 2 1 4 3 4 7 6 3 9 10 12 10 8 9 9 10 7 6 5 5 5 5 6 6 6 11 13 14 16 16 18 22 23 21 21 21 22 23 22 21 19 19 18 16 14 12 11 10 8 7 6 5 4 3 3 2 1 1 2 2 1 1 1 2 3 3 2 2 3 4 5 6 8 10 11 10 7 6 7 6 7 7 7 8 7 6 5 3
5 4 3 3 3 4 5 6 5 1 2 5 6 6 6 3 5 9 10 10 9 8 7 7 7 7 6 6 5 6 7 7 4 5 9 12 14 15 16 18 20 21 21 21 20 20 22 24 22 20 20 18 16 15 13 12 11 9 8 7 6 6 5 4 3 3 3 4 5 5 4 3 1 0 1 0 1 1 2 3 4 7 9 9 8 7 5 5 5 5 6 7 9 8 7 5 4
5 3 2 3 3 4 6 5 6 2 5 4 6 6 5 6 8 8 9 7 7 8 7 6 7 7 7 8 8 8 7 5 3 5 8 11 12 12 14 17 17 17 19 20 17 16 21 23 22 22 20 18 17 16 15 14 13 10 9 8 7 7 7 5 5 5 5 6 6 6 6 5 5 4 4 3 3 2 3 4 3 5 6 6 5 3 3 2 3 5 8 10 9 8 6 5 5
3 2 1 3 3 5 7 4 5 2 4 2 2 6 2 5 7 6 8 9 9 10 9 9 10 9 8 9 10 9 5 3 4 5 8 11 11 11 13 15 16 16 18 20 18 18 22 23 23 23 21 19 17 17 16 15 12 10 9 9 8 8 7 6 6 5 5 5 6 6 6 6 6 6 6 6 5 5 5 4 3 3 4 4 4 3 3 3 3 6 9 10 8 7 6 7 7
3 2 2 2 3 4 7 3 4 3 3 1 2 6 1 3 4 4 6 7 6 6 6 7 9 9 9 10 10 8 6 4 5 5 8 12 13 12 14 14 15 16 17 19 20 20 22 23 23 23 21 19 18 17 17 14 11 10 8 8 9 8 8 6 5 4 4 4 4 5 5 5 5 5 6 6 6 5 5 4 3 2 3 3 3 3 2 3 3 4 7 8 8 7 6 8 8
3 3 3 3 3 1 3 4 5 5 2 3 5 6 3 4 1 2 3 1 3 4 5 4 6 8 8 9 8 7 8 7 6 6 7 11 14 15 16 15 15 15 16 18 19 21 22 23 24 23 21 20 20 19 18 14 12 11 9 8 9 8 7 6 5 4 4 4 3 3 2 2 3 4 5 6 5 5 4 4 3 2 3 3 3 1 1 2 2 3 4 6 7 7 6 7 8
3 4 5 4 4 4 5 4 5 5 4 4 5 5 4 3 1 4 3 2 4 4 6 6 5 5 4 5 6 6 7 7 7 6 6 8 11 15 16 16 16 16 17 18 19 20 22 24 23 22 22 23 21 21 19 16 14 13 12 11 10 9 8 7 6 6 5 4 4 3 3 2 2 3 4 4 5 4 3 3 1 1 2 3 3 2 2 2 2 4 5 5 5 6 6 5 6
4 4 8 8 5 5 4 3 5 4 4 3 4 5 2 5 1 5 3 1 2 2 6 7 6 5 5 6 6 6 6 6 6 5 5 6 9 12 15 17 18 18 19 19 20 21 22 23 23 23 25 24 23 22 20 17 16 15 14 14 13 11 10 9 7 7 6 5 6 6 6 6 4 4 3 2 3 3 3 4 2 2 3 4 3 3 2 2 3 4 4 4 3 3 3 3 4
2 5 8 8 6 3 1 1 3 2 0 2 3 5 1 5 3 3 3 1 1 1 5 6 5 6 6 6 5 5 6 6 5 5 6 7 9 12 14 18 21 21 20 20 20 22 24 25 25 26 26 25 24 23 21 19 17 15 14 14 14 13 12 10 8 8 7 7 7 8 8 8 6 5 4 3 3 3 3 4 4 3 5 5 5 4 4 3 2 3 4 5 3 2 1 2 3
3 5 6 7 6 4 3 4 3 2 2 2 5 5 4 1 3 4 3 2 2 3 6 6 6 7 6 6 6 6 7 6 6 6 7 7 10 13 15 18 20 21 21 22 24 24 24 25 25 26 25 25 24 23 22 21 18 16 15 14 14 12 11 10 9 8 8 7 7 8 8 8 7 6 4 3 3 4 4 4 4 6 7 7 6 6 6 6 4 3 3 5 4 3 2 2 3
5 5 7 6 5 5 4 5 3 1 1 1 6 4 4 2 5 5 4 3 4 6 8 8 7 8 8 7 6 7 7 6 6 7 7 9 12 15 15 16 18 21 24 23 19 14 12 15 20 23 24 24 23 22 23 21 17 16 15 15 14 12 9 9 9 9 9 8 6 7 7 7 6 6 4 2 3 4 4 4 4 5 6 6 6 6 6 6 6 5 4 5 5 5 4 3 3
4 6 6 5 6 5 5 5 3 3 3 3 6 4 3 2 5 3 3 1 5 7 6 7 7 7 7 7 6 7 6 6 6 6 7 10 13 14 14 15 17 20 20 16 12 9 9 13 18 22 25 23 22 22 23 21 17 15 15 14 13 12 10 10 10 10 9 7 6 6 6 6 6 5 5 4 5 5 4 4 4 4 5 5 5 5 6 6 6 6 7 7 7 7 7 5 4
4 6 6 6 6 5 4 3 4 4 2 5 6 2 3 1 5 3 0 1 5 5 6 6 7 7 8 7 7 7 6 6 6 6 6 9 12 13 13 15 17 16 14 13 14 16 21 24 22 22 24 23 21 21 22 20 16 14 14 13 13 12 10 10 11 11 9 8 7 7 6 6 6 6 6 6 6 6 4 3 3 4 5 5 5 4 4 5 6 7 8 10 11 11 11 10 9
5 5 5 4 4 5 4 4 3 4 2 5 5 3 3 3 3 3 4 7 6 6 7 7 6 7 8 8 6 6 6 6 6 6 6 7 9 10 12 14 14 13 14 15 18 24 29 29 25 23 22 20 19 20 20 18 16 15 15 14 13 11 10 9 10 9 9 9 8 8 7 6 6 6 7 7 6 5 4 2 2 4 5 5 4 4 4 6 8 9 9 10 11 11 12 12 13
5 5 5 4 2 3 2 3 1 1 4 4 3 3 2 3 4 4 6 9 6 5 7 7 6 7 6 6 5 5 5 5 5 3 3 4 7 9 12 13 13 13 15 16 19 25 29 29 28 25 20 16 16 17 18 17 17 17 17 16 15 13 11 10 9 9 9 9 8 7 6 6 6 6 6 6 6 5 3 3 4 5 6 5 5 5 6 8 9 9 9 9 9 10 10 10 13
4 5 5 4 3 3 1 2 1 2 4 2 4 3 1 3 3 3 5 7 6 5 5 4 4 4 5 6 5 5 5 5 5 5 4 3 1 8 10 11 13 14 16 18 20 25 30 29 24 16 13 14 17 17 17 17 17 18 19 18 16 15 13 11 10 10 10 9 6 5 5 5 5 5 6 6 6 4 3 4 5 7 7 7 7 7 8 8 8 8 8 8 8 9 9 10 12
3 4 5 5 4 4 3 3 2 2 2 2 4 1 2 2 2 4 5 5 5 4 3 2 3 5 6 7 7 7 6 6 6 6 5 6 8 2 10 11 14 17 19 20 21 26 28 21 14 18 15 14 16 15 15 16 17 18 18 19 18 17 15 12 11 11 10 8 6 4 4 4 3 4 5 6 5 4 3 4 5 6 7 7 7 7 8 8 8 8 8 8 9 9 9 10 11
1 3 5 3 5 5 3 3 4 4 2 1 2 1 2 3 3 5 4 4 6 5 4 6 7 6 8 8 8 7 5 5 5 4 6 1 11 8 8 13 16 18 20 22 24 25 21 13 18 23 20 16 15 15 16 16 18 18 19 20 20 18 16 14 13 12 11 8 5 3 3 3 2 2 4 5 5 4 4 4 3 3 4 4 4 5 6 7 7 8 8 9 10 9 9 10 10
1 2 3 4 4 7 6 2 1 3 4 1 1 1 2 2 2 5 5 5 5 5 4 5 6 8 9 8 7 7 5 6 5 3 2 3 8 10 7 12 15 17 19 22 23 20 13 14 22 27 22 21 20 19 18 18 19 19 20 20 20 19 17 15 14 13 12 9 4 2 4 4 3 3 4 6 6 5 4 4 3 2 1 1 1 2 4 5 6 7 7 8 9 8 8 9 9
4 3 5 3 3 5 5 3 3 4 3 2 2 0 2 1 0 4 4 2 2 4 4 3 4 7 9 8 8 9 8 6 3 4 2 1 3 5 7 12 15 18 20 21 21 15 12 17 24 25 22 26 26 22 20 20 20 19 19 20 20 20 18 16 14 12 12 10 7 4 7 5 4 4 5 6 6 6 5 4 4 3 3 2 1 1 1 3 4 5 6 7 7 7 7 9 8
4 4 4 4 3 1 2 3 2 2 2 2 3 2 2 2 2 3 3 4 3 1 0 2 3 5 6 6 7 8 8 7 3 2 3 1 1 1 6 13 16 18 19 20 19 15 16 22 22 17 21 25 24 24 24 22 20 19 19 20 21 21 20 17 14 13 14 14 11 8 8 6 5 5 6 6 7 6 6 6 6 6 5 4 3 2 1 0 1 3 4 5 6 5 6 8 8
4 2 3 2 2 4 2 3 3 4 4 2 1 2 2 5 4 5 6 7 6 5 3 1 2 3 3 3 5 6 6 6 4 2 1 2 4 5 5 10 13 15 16 16 17 17 21 25 20 16 21 23 23 24 25 24 21 19 19 21 22 22 22 19 17 17 17 16 14 11 9 7 6 6 6 7 6 6 6 6 7 8 8 7 6 5 3 2 2 0 2 3 4 3 4 6 7
3 2 1 1 2 3 2 2 2 4 5 3 2 1 4 5 3 5 6 7 7 5 3 1 2 4 3 2 4 6 6 5 3 2 2 3 5 7 7 7 9 11 13 14 16 19 22 22 18 16 19 22 23 24 24 23 20 19 21 22 22 24 24 21 20 19 18 18 16 13 11 9 8 8 7 7 7 7 6 6 7 9 10 10 9 8 6 5 4 3 1 1 2 2 2 3 5
5 3 3 3 3 4 4 2 1 2 4 4 5 2 5 4 2 3 4 5 6 4 4 2 2 4 4 4 5 5 5 5 3 3 4 3 5 8 9 9 8 10 11 13 15 18 21 22 20 18 19 22 21 22 24 22 21 22 23 23 21 22 22 20 20 20 19 19 18 14 12 12 12 12 11 10 9 9 8 8 8 9 10 11 11 10 9 8 6 5 4 3 2 2 2 2 2
Wind_Direction
106 96 85 126 144 138 128 85 98 314 92 276 272 235 257 234 248 295 293 288 291 295 4 59 65 36 105 119 129 110 68 126 162 149 197 176 139 151 160 159 156 155 152 148 148 151 154 155 154 152 149 147 144 138 136 136 136 134 132 133 133 134 135 134 135 133 130 127 125 124 123 123 121 121 123 122 122 121 118 112 106 104 106 109 110 109 108 109 111 114 115 117 119 119 119 120 121
120 102 87 135 135 138 181 74 103 314 67 313 277 180 255 301 7 285 281 286 277 16 46 61 79 68 84 109 120 97 47 51 125 131 114 127 129 141 153 155 156 153 149 148 151 153 154 154 156 155 151 148 146 140 138 137 136 135 133 133 133 134 134 135 134 130 126 126 126 126 125 124 124 123 123 123 122 122 119 115 112 108 106 109 111 110 108 108 109 112 115 116 119 121 121 122 125
129 123 126 146 113 75 107 46 101 108 111 231 272 227 265 26 64 306 285 250 154 113 56 11 56 58 67 88 66 53 87 103 116 117 117 131 130 141 151 154 154 152 148 148 151 153 152 154 158 157 154 151 149 144 139 138 136 135 135 133 133 133 133 134 132 130 129 130 130 129 128 126 125 124 123 121 121 122 121 118 116 111 107 108 110 111 110 108 108 111 116 117 119 122 123 126 128
141 140 166 161 90 30 74 46 135 122 152 217 269 259 242 150 160 340 323 149 178 176 47 20 36 350 45 87 54 50 114 128 121 126 123 139 152 152 152 152 152 150 147 149 151 151 150 154 158 157 156 154 151 146 142 140 136 134 134 134 134 134 133 133 134 134 134 134 133 132 130 128 127 125 123 119 119 120 120 118 115 113 109 109 112 113 111 109 110 112 118 122 123 125 125 128 131
148 150 171 150 99 70 106 83 118 124 199 190 223 262 225 172 178 357 324 287 260 75 54 61 42 327 50 82 90 80 102 114 99 86 101 141 156 152 148 147 148 147 147 149 149 149 149 154 156 157 157 155 152 147 144 142 138 134 133 133 135 137 137 136 137 137 137 138 136 135 133 131 129 127 123 120 121 120 118 117 116 117 116 118 119 116 112 108 109 110 117 127 129 130 131 133 133
143 142 109 78 94 152 118 123 164 202 225 166 207 267 233 186 188 213 289 293 278 103 76 89 97 18 60 39 42 53 67 127 94 82 117 147 155 151 145 146 147 145 146 146 147 149 150 154 155 155 155 155 152 146 144 144 141 137 134 132 134 138 139 140 140 140 140 141 140 138 136 134 131 128 124 123 123 122 121 119 120 122 124 128 125 118 115 110 108 109 115 126 131 131 133 135 136
156 147 46 73 48 26 114 176 201 220 243 181 210 272 274 233 184 190 288 301 323 92 75 87 112 95 70 326 58 20 357 134 122 130 146 150 152 149 146 148 146 141 142 145 147 149 150 153 153 151 152 154 152 146 145 145 145 142 138 135 135 139 140 140 140 142 142 143 142 140 137 134 132 127 125 125 124 125 126 128 128 128 130 131 125 119 119 113 111 113 118 125 128 127 132 137 140
159 160 17 99 67 16 109 213 230 209 248 231 226 258 274 270 205 168 228 260 308 100 104 108 104 89 80 320 60 19 40 115 135 147 150 149 150 148 147 148 141 137 141 145 147 149 150 152 151 149 150 152 152 148 146 146 147 146 143 139 139 141 142 142 141 141 142 141 139 137 135 132 131 126 125 126 126 128 132 136 134 134 137 134 127 124 120 113 112 116 118 122 124 128 139 145 149
104 70 115 102 119 63 53 264 256 232 252 259 254 261 273 281 276 183 181 214 223 131 121 138 118 103 110 62 72 15 63 119 140 147 149 147 148 145 146 146 139 135 141 145 145 147 147 148 148 148 149 152 155 152 148 148 149 150 147 144 143 144 144 145 144 143 141 140 137 136 136 133 132 128 126 126 128 134 139 141 136 136 141 140 135 128 121 111 112 118 119 122 126 133 143 151 156
54 30 148 95 112 140 305 277 256 253 249 254 263 269 275 281 271 201 175 197 187 126 113 110 106 117 119 94 80 66 116 133 136 138 145 146 146 145 145 145 141 138 143 146 145 145 144 146 146 148 151 152 156 157 153 152 152 153 152 150 149 148 149 150 148 147 144 143 140 138 137 134 133 130 127 126 131 137 139 138 135 138 140 142 141 131 121 108 111 120 127 132 134 139 146 153 158
51 338 107 80 92 166 235 248 268 268 269 281 276 264 261 269 270 209 158 157 157 123 140 104 99 123 111 97 69 109 137 136 133 136 143 145 146 147 145 144 143 143 146 146 146 146 145 147 147 149 151 151 156 159 159 156 156 157 158 158 155 152 153 153 149 147 144 142 141 140 138 134 132 129 127 127 130 134 133 134 137 141 142 145 146 136 121 110 114 120 129 135 135 139 144 151 157
99 307 67 97 158 187 205 211 276 286 295 307 290 281 276 278 287 148 134 129 129 116 149 139 135 144 103 106 129 131 137 132 135 140 144 145 146 148 146 144 145 147 147 148 149 149 149 150 150 148 151 154 156 160 164 161 161 162 163 165 159 154 153 151 148 145 144 143 144 142 139 136 133 129 126 127 129 131 130 133 138 143 145 145 144 137 125 118 116 115 121 123 125 133 138 146 152
129 162 93 144 193 162 168 166 277 317 318 290 269 297 339 352 16 122 130 119 120 118 164 178 152 142 95 120 125 138 139 136 141 143 145 146 147 149 147 146 147 149 149 152 154 151 151 151 150 149 150 154 154 159 165 164 164 165 167 169 159 153 152 150 148 148 148 147 147 144 141 138 133 129 127 128 131 134 134 134 136 142 146 145 138 132 130 122 114 116 116 112 114 120 128 136 142
146 152 122 170 163 124 158 150 258 25 294 264 268 309 347 17 12 96 114 103 77 127 141 130 138 106 94 127 131 156 149 146 147 145 146 145 148 148 148 148 150 152 153 157 155 150 149 149 150 150 150 152 155 162 168 167 167 168 171 170 159 155 154 153 153 152 152 150 149 145 142 138 135 133 132 134 135 137 138 140 136 131 137 143 140 134 131 122 117 121 117 108 105 108 116 124 132
161 129 97 127 58 93 188 195 152 133 245 261 304 323 351 25 48 67 90 107 72 17 101 89 101 67 154 163 166 171 155 150 148 143 143 142 145 147 149 151 153 155 157 159 153 150 151 151 152 152 151 153 159 167 169 168 168 169 171 169 164 161 158 157 156 154 153 152 150 146 144 142 140 139 140 141 139 140 141 144 141 130 132 140 143 138 133 125 125 128 124 112 103 102 105 113 121
134 106 73 103 216 158 191 203 131 125 249 246 300 347 3 355 37 61 331 127 117 32 52 62 336 326 178 179 144 149 151 149 145 142 141 139 142 145 150 153 154 157 159 159 153 155 157 155 154 153 154 157 163 169 169 167 168 169 169 169 167 164 162 161 159 156 156 155 154 152 152 149 146 146 146 146 143 145 147 148 144 138 138 142 143 142 137 129 131 135 133 122 109 105 103 105 114
75 83 71 91 208 178 183 199 161 157 264 273 331 19 28 351 11 58 20 64 99 59 42 46 342 355 137 135 132 139 147 148 144 140 138 139 143 144 148 151 153 155 157 158 154 157 159 157 155 154 158 163 167 170 169 166 167 168 169 169 167 165 165 165 163 160 159 160 161 163 163 157 152 151 149 152 152 150 150 150 147 145 146 146 146 147 143 134 133 138 142 134 121 116 112 108 110
59 89 119 212 190 178 183 192 189 181 269 283 325 12 44 19 54 129 54 39 61 67 52 64 53 61 88 116 129 137 147 147 145 143 141 144 149 151 153 155 155 155 156 158 157 158 160 159 157 158 164 169 170 171 169 166 167 170 169 169 167 166 165 167 167 164 166 167 170 169 165 161 156 153 155 160 161 157 155 154 153 153 152 152 152 153 151 145 141 141 143 139 130 125 123 119 115
104 115 155 218 194 207 202 196 204 211 269 294 311 335 352 295 160 145 96 20 41 78 66 86 88 91 102 118 129 139 148 147 149 149 149 155 162 165 163 163 162 160 160 161 160 162 164 164 162 164 168 172 173 172 169 167 170 172 171 169 168 165 166 172 170 168 174 172 169 165 162 163 158 157 154 158 165 162 163 161 161 163 159 158 157 159 161 158 153 151 150 146 139 134 132 128 123
160 133 193 240 206 227 251 238 230 228 298 310 303 327 331 286 169 131 133 131 90 130 142 124 127 132 127 131 135 143 149 148 154 156 157 165 174 176 172 172 170 166 164 164 164 168 170 167 165 167 169 173 175 172 169 169 173 175 172 171 169 167 172 177 173 172 179 175 170 167 169 171 165 164 154 159 169 165 171 172 169 167 164 166 167 171 174 169 167 166 165 162 154 148 145 139 131
172 150 194 232 175 203 260 243 251 263 253 268 291 337 323 305 82 115 132 121 254 222 211 180 157 149 140 141 143 148 150 149 157 162 164 171 180 184 182 178 173 169 166 166 169 173 174 170 168 170 171 175 175 174 174 174 178 178 174 174 173 172 177 180 176 177 181 181 180 178 182 184 181 181 173 178 180 172 180 184 178 171 169 173 177 183 184 183 186 182 179 178 183 189 179 157 143
152 233 204 202 147 202 255 220 241 257 190 252 298 331 300 325 31 127 136 138 223 223 215 191 158 152 148 146 147 149 151 155 163 169 172 176 182 183 184 181 174 172 170 170 173 175 176 174 175 173 172 176 176 178 180 178 180 180 177 178 178 180 184 183 180 182 185 187 185 186 191 195 197 200 202 203 197 192 196 192 188 183 178 179 180 186 191 194 195 188 189 197 214 220 214 196 160
202 273 258 227 172 213 259 200 210 206 229 267 256 298 292 33 7 182 143 204 250 253 184 160 154 152 147 145 149 152 157 164 168 175 177 177 181 180 180 180 177 174 174 177 176 176 177 176 175 174 174 178 179 181 182 180 181 182 181 182 185 188 189 188 187 188 192 192 190 192 198 205 209 212 222 231 229 222 211 197 194 193 188 187 187 189 194 199 198 198 211 224 236 237 233 218 176
191 260 295 264 178 208 253 249 237 207 242 256 251 333 300 284 291 90 27 297 289 344 129 145 151 147 144 147 154 159 163 168 172 177 177 175 178 180 179 181 180 178 178 179 178 172 170 174 180 186 187 182 182 184 184 182 182 184 185 187 193 195 195 197 196 198 201 200 198 197 199 208 216 224 230 239 247 245 228 204 197 196 195 199 201 200 200 202 205 213 232 247 261 257 242 219 190
201 222 267 267 192 229 258 275 272 250 243 250 301 292 269 245 197 97 343 318 54 98 124 142 144 141 149 154 157 163 167 167 170 170 170 172 174 176 181 183 182 183 183 179 177 174 174 185 196 203 200 189 187 187 187 189 186 186 192 198 201 202 202 205 206 209 211 210 208 204 203 207 217 231 240 244 248 248 238 216 200 194 196 203 210 213 214 213 214 221 243 270 292 284 235 215 212
218 207 243 265 272 272 278 285 273 254 242 193 181 262 268 237 141 83 291 139 116 123 135 143 141 142 152 155 161 168 169 168 168 164 162 167 170 174 180 184 187 188 185 175 180 187 186 190 197 204 204 197 194 192 193 194 193 195 202 208 209 209 207 207 212 216 220 223 223 218 212 214 227 239 246 247 245 245 241 227 209 200 199 205 214 224 229 229 229 238 274 295 301 287 204 205 250
199 188 241 248 272 295 276 271 269 235 241 185 179 242 284 329 138 240 222 140 138 133 138 148 141 143 152 157 168 171 173 173 168 159 156 163 173 180 181 184 185 176 165 172 191 196 192 192 197 204 207 206 200 199 201 201 202 205 211 215 212 214 215 213 218 224 229 234 236 234 229 228 233 237 247 251 247 248 248 241 227 209 206 215 226 240 240 237 241 254 278 288 273 240 197 178 336
177 168 275 278 307 309 236 249 266 203 233 199 176 213 8 37 256 220 171 143 148 138 142 153 142 141 153 160 170 174 178 171 164 162 166 174 181 186 185 181 169 151 161 193 207 199 192 193 198 204 208 209 205 205 208 206 208 210 216 219 218 221 223 224 227 232 236 240 243 241 239 236 229 227 236 242 246 247 241 242 243 226 218 234 251 253 245 239 244 252 259 274 261 226 204 187 26
176 133 285 300 357 334 255 242 239 173 206 189 154 151 353 261 249 214 144 142 148 139 146 154 144 144 155 167 175 176 175 164 166 176 181 185 188 188 184 176 168 166 178 193 203 200 195 194 199 205 207 210 209 210 212 211 212 214 219 222 223 226 228 234 238 240 240 239 241 242 241 234 226 226 227 228 235 234 227 232 242 237 228 233 245 239 236 238 242 243 244 256 247 220 215 207 333
300 85 99 309 6 333 273 270 143 159 187 159 141 226 274 256 262 213 148 148 148 146 155 155 144 154 164 175 181 180 174 165 178 186 186 190 190 187 183 179 177 175 177 186 193 196 195 192 201 206 207 214 214 212 212 211 213 215 221 222 223 225 228 239 245 248 248 244 245 247 249 242 238 235 224 221 227 224 226 226 231 239 228 217 227 230 231 234 236 236 237 241 230 216 212 195 247
347 30 41 359 19 285 288 314 126 164 209 141 144 231 253 264 268 196 159 157 154 154 164 162 152 161 172 183 186 189 178 167 187 191 191 193 187 185 183 175 171 170 172 180 184 188 194 195 202 207 209 218 217 212 208 206 207 209 216 219 221 225 230 242 250 255 261 270 271 263 256 251 255 248 224 224 228 223 228 233 238 242 225 212 222 232 231 228 229 228 224 225 220 213 207 197 235
37 90 314 347 158 267 302 293 169 189 286 111 148 222 258 261 245 182 164 164 161 157 166 170 166 164 173 186 188 188 172 166 188 199 201 197 190 187 177 167 171 179 178 182 187 191 200 201 204 209 212 216 215 210 204 199 196 195 205 216 226 237 246 257 262 265 270 282 285 283 272 255 259 256 232 229 230 230 235 240 240 230 224 227 228 232 233 228 224 220 212 211 213 207 206 217 248
1 101 223 279 176 279 316 312 211 201 221 110 161 171 244 265 225 174 165 169 169 160 166 174 174 172 174 174 178 186 182 179 193 205 202 198 197 188 172 168 185 200 194 187 192 198 202 204 205 212 213 212 210 205 199 191 185 187 199 207 223 242 262 278 282 281 282 284 287 302 306 288 289 290 262 244 235 244 252 253 240 221 222 233 234 234 237 237 222 213 211 203 201 201 198 204 213
321 31 125 246 213 260 308 311 287 175 144 220 173 154 228 275 188 165 169 174 174 168 173 181 178 171 162 155 177 195 196 202 203 203 196 192 194 188 175 172 188 207 204 191 196 202 202 203 205 211 212 208 205 201 194 184 180 185 192 193 200 215 239 258 282 296 300 319 319 319 322 311 305 300 280 260 243 248 254 255 244 229 228 235 241 240 237 241 223 213 219 198 187 194 190 181 175
197 183 50 292 287 274 259 279 290 55 83 222 167 181 248 286 175 169 173 175 176 176 174 182 179 162 154 166 187 196 204 219 211 194 188 184 186 187 181 179 191 205 203 196 200 202 201 202 203 208 208 203 201 200 190 181 182 183 180 175 176 179 182 173 138 81 64 60 62 50 7 308 284 280 275 257 240 245 248 250 241 230 232 237 244 238 223 236 227 213 223 201 187 190 182 171 160
149 171 161 202 266 277 250 256 260 139 138 212 189 198 228 219 174 175 174 172 171 173 168 167 166 157 164 179 189 200 213 224 211 184 183 181 185 188 186 186 193 201 202 202 202 197 197 199 198 203 206 202 200 198 189 182 180 176 169 164 162 155 146 140 122 107 99 96 99 95 90 100 120 217 247 176 159 226 228 232 226 222 232 238 244 238 221 238 243 219 223 224 215 198 169 163 164
115 126 160 210 221 272 265 265 281 179 144 223 197 175 204 193 181 177 167 160 159 167 169 163 158 163 179 187 193 204 215 213 174 170 177 177 184 190 190 189 188 193 200 205 204 196 195 195 194 199 203 201 201 199 190 184 177 170 163 156 151 141 136 136 130 122 115 109 104 99 97 94 93 97 98 97 100 116 145 161 187 210 226 239 246 236 199 210 253 225 214 219 225 210 176 173 178
84 128 205 271 219 250 262 254 303 293 137 279 174 139 213 211 182 175 161 163 174 176 176 171 164 170 185 192 198 202 205 183 141 149 161 165 178 189 190 188 185 186 192 200 204 199 195 195 196 198 198 197 202 202 191 183 177 171 163 154 153 147 142 146 143 133 121 110 103 100 97 93 91 94 99 100 101 103 112 131 166 201 218 247 257 240 182 166 207 209 199 206 221 217 195 189 186
83 122 159 278 243 273 288 270 316 336 120 292 123 116 342 266 198 191 178 175 178 172 174 176 171 176 188 195 202 199 190 187 167 154 158 164 171 182 187 190 190 187 187 193 200 198 196 196 197 197 195 194 201 202 191 181 174 173 167 158 160 157 150 153 154 148 134 118 107 98 92 93 90 91 104 108 105 99 96 105 123 164 195 225 235 234 185 162 201 207 203 219 228 223 200 185 190
118 138 142 253 258 299 296 282 327 348 75 130 125 101 23 334 3 246 250 169 114 125 148 174 192 195 199 199 203 202 195 197 189 172 169 170 171 177 185 189 191 191 187 188 193 196 198 199 198 197 196 196 199 197 189 180 174 174 170 162 166 164 158 162 161 154 151 147 138 116 93 88 88 94 106 114 116 109 100 100 104 146 182 190 177 171 156 158 191 214 234 247 234 227 212 189 191
254 186 169 219 246 207 224 285 335 351 27 75 89 65 10 354 141 227 278 57 103 139 155 175 206 210 214 207 203 204 202 204 198 186 180 177 174 177 182 185 190 194 193 192 194 197 199 199 199 199 197 195 195 192 186 180 175 171 165 161 165 162 157 160 155 145 148 151 144 128 111 103 109 111 109 120 129 125 127 129 127 184 176 164 151 138 136 155 182 214 244 254 242 240 233 211 201
304 237 202 203 203 211 244 336 16 34 20 10 60 67 334 321 278 217 252 86 107 158 175 184 195 194 205 207 201 196 199 210 204 185 177 179 176 175 179 184 188 194 196 198 199 197 196 197 197 196 194 191 190 189 186 182 179 175 171 169 167 161 157 159 155 144 141 134 121 112 108 107 110 113 114 131 133 134 153 151 156 190 168 153 143 136 142 168 198 213 218 217 228 246 234 227 223
316 246 205 188 165 155 191 54 69 95 231 318 64 109 193 319 313 247 271 205 170 195 196 198 193 197 206 204 202 191 192 206 195 172 175 181 179 177 182 187 189 192 193 194 194 192 192 193 191 189 187 186 186 186 185 184 180 178 181 181 178 173 167 167 168 160 147 135 122 112 106 104 104 100 104 115 122 131 136 136 143 147 141 136 122 108 105 110 143 186 191 190 197 218 210 206 222
235 231 159 148 153 157 147 106 96 177 213 334 16 93 118 338 277 286 335 140 211 241 214 218 207 203 210 204 200 195 193 195 186 183 185 185 188 189 189 191 190 189 189 190 190 189 188 185 182 182 182 183 184 185 187 187 182 178 181 184 182 180 177 174 175 171 158 149 137 123 112 105 102 96 92 96 119 132 123 116 136 138 129 123 112 103 96 92 93 117 160 171 176 181 186 204 216
240 205 137 134 142 140 117 95 85 26 114 307 329 31 100 246 276 318 20 129 238 247 221 221 214 206 209 204 200 198 193 187 186 191 189 189 195 194 192 192 191 190 191 190 185 175 170 174 175 178 182 185 187 187 188 188 184 181 184 184 178 173 175 174 172 170 165 163 153 134 123 111 106 99 90 99 129 133 117 108 125 134 129 125 120 108 95 92 90 97 122 142 157 157 151 168 182
210 144 103 69 74 78 74 90 97 41 67 224 289 355 102 252 288 329 40 110 243 254 239 224 215 210 208 203 202 195 186 185 189 195 193 193 194 193 192 190 191 195 192 181 161 137 150 182 187 186 189 190 189 190 190 187 184 185 187 188 182 173 172 173 171 172 170 172 164 143 129 117 112 106 103 121 134 133 121 111 123 134 135 136 132 116 98 92 89 94 104 108 115 118 117 123 122
130 104 66 44 33 33 48 55 81 72 359 252 266 290 131 201 284 263 125 237 239 263 277 245 210 203 202 201 198 186 182 182 180 187 188 184 187 188 189 189 190 191 183 170 167 172 187 201 202 196 194 192 189 190 191 187 184 191 195 195 193 185 183 184 182 180 178 177 166 147 133 122 116 112 119 130 134 131 125 122 138 138 134 135 132 119 102 95 98 104 102 99 99 96 91 90 90
98 81 73 73 6 10 31 359 43 95 265 260 269 277 150 154 254 246 268 277 263 251 260 253 223 208 199 195 190 178 176 176 172 176 171 163 166 174 181 184 182 179 174 175 181 188 196 203 203 201 197 191 188 188 191 189 186 195 202 203 203 201 203 206 199 193 187 179 165 148 139 133 130 128 129 134 134 130 116 107 137 140 138 143 144 138 123 113 114 118 113 104 99 95 91 87 87
77 84 89 96 22 11 34 318 1 155 241 255 301 310 177 202 222 221 264 282 282 256 250 259 249 226 195 173 166 154 152 158 152 131 145 164 159 165 177 174 170 174 175 178 188 194 198 202 204 200 190 181 183 189 194 194 193 201 205 205 206 208 212 215 211 203 194 185 172 158 149 140 140 144 144 142 137 128 105 94 123 130 134 141 139 133 130 128 129 128 125 116 108 104 101 97 95
125 133 126 122 102 80 188 268 316 238 243 273 317 315 252 271 260 229 267 282 289 289 280 267 235 191 152 136 126 114 105 104 92 63 23 328 192 161 162 157 162 176 181 184 193 198 200 204 199 173 148 165 184 190 196 198 200 204 206 205 206 207 210 212 210 205 195 187 179 170 165 153 142 146 157 161 154 142 123 122 127 123 123 126 125 124 128 138 145 144 137 126 116 112 107 102 100
167 156 128 140 153 141 185 216 176 199 238 309 310 297 167 217 284 292 287 297 317 342 6 49 84 98 107 101 88 85 79 81 92 90 69 356 324 173 143 151 171 182 188 190 196 200 201 196 156 122 132 175 191 195 202 205 204 204 204 205 205 207 209 206 203 204 199 189 180 183 190 180 161 155 168 176 173 169 157 145 138 126 121 121 122 123 125 135 144 144 142 132 120 118 113 106 100
212 132 108 149 180 141 133 174 168 166 137 33 277 233 201 217 287 315 329 345 356 16 52 79 84 85 89 82 74 71 61 68 77 85 103 55 299 278 165 165 179 185 189 194 201 202 193 158 124 133 161 192 204 212 216 212 207 204 205 207 204 204 205 201 198 201 203 197 184 195 218 214 203 189 189 192 188 191 191 178 164 139 125 121 122 125 122 126 135 135 138 133 126 125 118 109 105
173 127 159 213 174 119 110 127 50 85 120 184 260 252 303 345 336 329 359 15 10 15 38 89 105 104 98 91 89 83 65 59 40 357 107 158 263 265 207 179 181 184 189 198 206 199 169 128 123 136 165 200 212 217 218 214 211 207 206 205 203 204 203 200 199 199 201 196 169 216 251 241 240 241 218 209 203 206 211 207 210 212 192 123 103 121 119 118 125 128 132 130 127 128 119 108 104
130 173 193 184 97 93 104 109 20 49 137 247 337 286 277 42 48 308 345 13 11 8 18 74 99 107 110 114 117 113 109 101 59 320 314 168 232 243 204 189 190 191 195 204 205 189 152 135 131 139 175 202 209 213 213 216 216 209 205 205 205 206 205 202 199 200 203 186 158 207 247 244 247 248 230 216 210 212 223 234 240 254 266 274 308 352 96 110 113 117 124 127 128 130 121 110 103
121 173 159 114 118 133 92 118 131 108 158 261 342 331 242 190 210 253 239 219 211 232 282 104 99 109 123 135 131 121 118 124 135 277 296 291 26 110 175 184 192 193 196 202 195 175 154 146 146 171 201 204 207 213 214 218 219 210 209 211 208 205 205 202 195 196 202 188 175 205 231 232 235 238 234 224 214 213 221 236 246 253 258 259 264 285 305 307 113 111 119 124 129 137 128 116 110
45 69 61 50 129 152 152 138 148 144 154 201 324 354 263 226 210 190 205 228 221 207 214 160 88 89 115 143 128 111 102 107 128 154 308 356 32 46 125 165 182 186 188 188 175 160 152 153 164 200 215 209 210 214 215 218 218 212 212 211 208 205 204 205 200 197 199 196 193 201 209 211 216 227 236 231 222 220 223 234 246 250 253 256 256 260 269 270 268 222 130 124 122 132 138 127 120
67 59 63 20 70 118 146 90 88 129 139 166 162 232 264 253 215 183 200 229 230 211 192 154 46 55 57 66 91 100 101 104 120 122 71 36 45 56 86 128 162 172 173 172 165 158 156 162 176 195 206 210 210 212 216 216 210 207 208 209 208 205 204 208 210 206 203 205 205 199 196 207 216 222 232 235 231 231 233 244 255 257 258 257 256 256 257 257 260 262 246 178 138 131 146 143 137
140 139 161 153 123 121 125 110 297 107 120 165 158 182 263 271 272 249 232 227 229 200 146 122 79 81 72 60 74 86 102 116 119 80 56 44 53 67 84 109 137 153 159 162 162 162 163 170 180 187 199 208 211 217 219 214 206 204 209 211 208 205 207 213 216 212 210 213 212 201 195 209 223 226 227 230 232 233 236 243 250 256 260 259 258 259 258 259 257 255 255 252 233 207 199 188 171
Height
761 762 762 763 763 764 766 767 778 785 786 791 788 784 774 768 768 764 761 757 756 753 749 750 748 748 749 754 760 763 766 768 772 782 782 769 764 766 766 766 767 769 771 773 776 779 781 785 788 791 793 793 793 794 794 795 797 798 799 800 801 803 804 804 805 806 806 807 808 808 810 811 812 813 813 814 815 816 817 817 818 818 819 820 820 821 822 823 823 824 824 825 826 826 827 827 828
761 762 762 763 763 764 769 770 783 791 790 792 786 782 772 767 770 763 761 759 758 754 751 751 750 751 750 752 755 760 766 765 764 766 766 764 766 767 768 769 769 770 772 775 776 778 780 782 785 788 792 794 796 796 797 797 798 799 800 801 803 804 805 806 807 807 808 808 809 810 811 812 813 814 814 815 815 816 817 818 819 819 820 820 821 822 823 824 824 825 825 826 827 827 828 828 828
760 761 761 763 763 765 770 773 785 796 794 791 781 776 770 767 767 763 760 757 756 752 751 752 752 753 754 756 757 762 768 765 761 762 763 765 766 768 770 770 771 772 773 776 777 779 780 781 783 785 789 793 796 797 798 799 800 801 802 803 804 806 807 808 808 809 810 810 810 811 812 813 814 814 815 816 816 817 818 819 820 821 821 821 822 823 824 825 825 826 826 827 828 828 829 829 829
760 761 761 762 765 767 772 777 785 792 792 791 780 768 766 767 764 761 757 753 751 750 752 753 756 755 755 762 761 764 768 764 762 761 763 765 766 768 769 770 771 772 774 777 778 780 781 783 784 784 788 791 794 797 799 800 801 802 803 804 806 807 809 809 810 811 811 811 812 812 813 814 814 815 816 817 817 818 819 820 821 822 822 823 823 824 825 825 826 827 827 828 829 829 830 830 830
760 760 761 761 767 770 774 785 791 790 783 784 775 761 764 766 762 759 755 751 749 750 753 754 760 758 756 762 763 767 768 764 763 762 764 766 767 769 769 771 772 773 775 777 779 781 783 785 786 787 788 790 793 796 798 801 802 803 804 805 807 809 810 811 812 812 812 812 813 813 814 814 815 816 816 817 818 819 820 821 822 823 824 824 824 825 826 826 827 828 828 829 829 830 830 831 831
760 760 761 760 766 768 775 787 790 786 776 775 770 759 762 764 762 759 754 751 748 751 752 755 761 761 763 764 762 765 766 765 765 764 766 767 769 770 770 771 773 775 777 779 781 782 784 786 787 789 791 792 793 795 798 800 802 803 804 806 808 810 811 812 813 813 813 813 814 814 815 815 816 817 817 818 819 819 820 822 823 824 825 825 825 826 826 827 828 828 829 830 830 831 831 832 832
759 760 762 764 769 770 779 786 782 782 774 771 769 759 759 760 760 759 757 753 751 752 752 756 759 764 771 767 765 766 763 764 764 765 767 768 770 771 772 773 774 776 779 781 782 784 785 786 787 789 792 794 795 795 798 800 802 803 805 806 808 810 812 812 813 814 814 815 815 815 816 816 817 818 818 819 819 820 821 822 824 825 825 826 826 827 827 828 828 829 830 830 831 832 832 833 833
758 762 765 768 775 778 784 785 781 783 775 769 767 759 755 753 757 760 759 756 754 755 755 757 757 767 774 767 770 768 763 764 763 766 768 769 771 773 774 774 776 778 780 782 783 786 787 788 789 789 792 795 797 797 799 800 802 804 805 806 809 811 812 813 814 815 815 816 816 816 817 817 818 819 819 820 821 821 822 823 824 825 826 827 827 827 828 828 829 830 830 831 832 832 833 833 834
759 762 767 770 778 783 785 783 781 783 775 766 763 757 752 750 753 757 759 756 755 756 757 757 757 768 774 770 773 768 765 766 764 767 769 771 773 774 776 776 778 779 781 783 785 787 789 791 791 791 792 794 797 799 800 801 802 804 806 807 809 811 813 814 814 815 816 817 817 817 817 818 819 819 820 821 822 823 823 824 824 825 826 827 828 828 829 830 830 831 831 832 832 833 834 834 834
761 763 767 772 778 784 785 783 781 778 771 764 761 756 751 749 750 752 756 756 753 756 759 756 758 767 772 773 773 769 768 767 765 769 771 773 774 775 777 777 779 780 782 784 786 788 789 792 793 794 793 794 796 799 802 802 803 805 806 807 809 811 813 814 815 816 816 817 817 818 818 818 819 820 820 821 822 823 824 825 825 826 827 827 828 829 830 830 831 831 832 832 833 834 834 834 834
764 765 767 774 781 783 782 780 778 774 768 765 759 751 748 748 749 751 752 754 753 757 759 756 763 767 769 774 773 769 769 768 767 770 772 773 775 776 777 778 780 781 783 785 786 787 789 791 793 794 795 796 796 799 802 803 805 806 807 808 810 812 813 814 816 816 817 818 818 818 819 819 820 821 821 822 823 824 825 825 825 826 827 827 828 829 830 831 831 832 832 833 834 834 834 835 835
765 768 768 775 779 779 780 780 776 771 766 763 756 746 746 747 748 750 751 755 756 758 757 755 761 763 770 776 772 770 769 770 770 770 773 774 776 777 777 779 781 783 785 786 786 786 787 790 792 793 795 797 797 799 803 804 805 806 808 809 810 812 813 815 816 817 818 818 819 819 819 820 821 821 822 822 823 824 825 825 826 826 827 828 828 829 830 831 831 832 833 833 834 834 834 835 835
764 769 768 773 779 779 781 781 777 773 764 759 755 746 745 745 746 750 751 756 757 758 757 753 755 759 771 775 771 771 771 771 771 771 773 774 776 777 778 780 782 784 786 787 787 787 788 789 791 792 794 797 798 800 803 805 806 807 809 810 811 812 814 815 816 817 818 819 819 819 820 820 821 822 822 823 824 825 825 826 826 827 827 828 829 830 830 831 832 832 833 834 834 835 835 835 835
762 767 765 773 783 782 779 778 775 773 765 757 754 749 746 747 748 749 750 757 760 757 754 751 752 760 770 774 774 773 771 772 772 773 774 775 777 778 780 782 783 785 786 788 788 788 789 790 791 793 794 796 797 800 803 804 805 807 809 811 812 813 815 816 817 818 818 819 820 820 821 821 822 822 823 823 824 825 826 826 826 827 828 829 829 830 830 831 832 833 834 835 835 835 835 835 836
760 765 765 771 781 782 778 775 773 772 765 756 754 751 748 748 748 749 751 756 760 755 752 752 753 761 768 771 773 770 770 772 772 774 775 776 778 779 781 782 784 786 787 788 789 789 789 790 792 793 793 795 797 801 803 804 805 807 809 811 813 814 815 816 817 818 819 820 820 821 821 821 822 823 823 824 825 825 826 826 827 828 828 829 830 830 831 832 833 834 835 835 836 836 836 836 836
760 763 768 773 778 780 778 775 774 773 764 756 756 753 750 750 749 751 751 751 757 755 755 758 756 760 763 763 764 765 769 772 773 775 776 778 780 781 782 783 785 786 788 789 790 791 791 791 791 792 793 795 797 800 802 803 805 807 810 812 813 815 816 817 817 818 819 820 821 821 822 822 823 823 824 825 825 826 826 827 827 828 829 830 830 831 832 832 833 834 835 836 836 837 837 837 837
758 762 770 775 779 779 775 774 772 769 761 755 756 755 755 754 752 753 750 750 757 760 761 763 759 758 760 760 759 762 769 771 773 776 777 779 781 782 783 784 786 787 789 789 790 791 792 793 792 793 795 796 798 800 802 803 805 808 810 812 814 815 816 817 818 819 820 821 822 822 822 823 823 824 825 825 826 826 827 827 828 829 829 830 831 831 832 833 834 834 835 836 837 837 837 838 838
759 768 774 775 780 776 769 768 764 762 760 756 755 756 757 757 756 754 753 757 761 764 765 764 762 760 760 760 760 763 769 771 773 775 777 779 781 783 784 785 786 787 788 790 791 792 793 794 793 795 797 798 799 801 803 804 806 808 810 812 814 816 816 817 818 819 820 821 822 822 823 823 824 824 825 826 826 827 827 828 828 829 830 830 831 832 833 833 834 835 835 836 837 837 838 838 838
762 772 775 773 776 770 762 762 759 759 759 757 756 756 756 755 755 753 757 764 763 764 768 767 766 765 763 763 763 766 768 770 773 775 776 779 780 781 783 784 785 786 787 789 791 792 793 794 794 795 797 799 800 802 804 805 807 809 811 813 814 816 817 818 818 819 820 821 822 822 823 823 824 825 825 826 826 827 828 828 829 829 830 831 832 833 833 834 834 835 836 836 837 838 838 838 839
762 769 772 770 768 764 761 759 756 757 758 757 756 756 754 751 752 752 758 766 764 764 768 767 768 767 765 765 765 767 769 771 773 775 776 778 779 780 781 781 782 784 785 787 789 791 792 793 794 796 797 799 801 803 804 806 808 809 811 813 814 816 816 817 818 819 820 821 821 822 823 823 824 824 825 826 826 827 828 829 829 830 831 831 832 833 834 835 835 835 836 837 837 838 838 839 839
763 765 767 765 765 764 759 756 755 756 758 757 756 757 754 749 749 753 757 764 765 763 761 759 762 764 764 765 766 767 769 771 773 774 775 776 778 779 780 781 782 784 785 787 788 790 791 792 794 795 797 799 801 803 805 806 808 810 812 813 814 815 816 817 818 819 820 820 821 822 822 823 823 824 825 825 826 827 828 829 830 830 831 831 832 833 834 835 835 836 836 837 837 838 838 839 839
762 762 761 760 764 764 756 755 756 755 757 757 757 757 754 750 751 754 755 758 758 756 755 755 756 759 760 762 765 767 769 771 773 774 774 775 777 778 780 782 784 785 786 787 788 790 792 793 795 796 798 799 801 803 805 807 808 810 812 813 814 815 817 817 818 819 820 820 821 822 822 823 823 824 824 825 826 827 828 829 830 831 831 832 833 834 834 835 835 836 836 837 837 837 838 839 839
762 761 758 758 761 760 755 754 755 755 756 756 756 754 753 753 755 757 756 755 754 751 751 754 756 758 758 760 763 765 768 770 771 772 773 775 777 779 781 783 785 786 786 788 790 793 795 797 799 799 799 800 802 804 806 808 809 810 812 813 814 815 817 817 818 818 819 820 821 821 822 822 823 823 824 825 826 827 828 829 830 831 831 832 833 834 834 834 835 835 836 836 837 837 838 838 839
762 762 758 757 759 758 753 753 755 755 755 753 754 754 753 754 756 758 757 756 754 751 751 753 756 759 760 761 763 764 766 768 770 772 774 776 779 781 783 784 786 787 788 789 792 795 798 801 802 803 803 802 803 804 806 808 809 811 812 813 814 815 816 817 817 818 819 819 820 821 822 822 823 824 824 825 826 827 828 829 830 831 831 832 833 834 834 834 835 835 836 836 837 837 837 838 838
762 762 758 756 757 755 752 753 754 754 754 752 754 754 751 752 755 757 759 758 755 753 754 756 757 760 762 763 764 766 767 769 771 773 775 777 779 781 783 785 786 786 787 789 791 793 795 798 801 804 804 804 804 805 806 808 809 811 812 813 814 814 815 816 817 817 818 819 819 820 821 822 823 823 824 825 827 828 829 829 830 832 832 833 833 834 834 834 835 835 836 836 837 837 837 837 838
759 758 757 755 755 752 752 752 750 752 752 751 754 752 749 751 754 756 759 759 757 756 757 758 759 761 764 764 765 766 768 769 771 773 775 777 779 781 783 783 784 786 787 789 792 794 794 796 799 803 804 805 804 805 806 808 809 811 812 812 813 814 815 816 817 817 818 818 819 820 821 822 823 824 825 826 827 828 829 829 830 832 832 833 834 834 834 835 835 836 836 836 837 837 837 837 837
755 756 756 754 754 753 753 751 749 752 751 749 752 751 750 753 754 756 758 758 757 758 759 760 761 762 764 765 766 767 768 769 771 773 775 777 779 780 781 782 784 788 792 796 796 797 797 798 800 802 804 805 804 805 806 807 809 810 811 812 813 814 815 815 816 817 817 818 819 820 820 821 822 824 825 826 827 828 829 829 830 831 832 833 833 834 834 834 835 835 836 836 836 837 837 837 837
753 755 755 753 754 753 751 750 749 751 749 747 748 750 753 755 753 753 756 757 757 758 761 762 763 765 766 767 768 768 769 770 772 774 775 777 778 779 781 782 786 790 794 798 799 798 799 799 800 802 803 804 804 804 806 807 809 810 811 812 813 814 815 815 816 817 817 818 819 819 820 821 822 824 825 826 827 828 828 829 830 831 832 832 833 833 833 834 834 835 835 836 836 836 837 837 837
752 754 756 753 752 750 747 748 748 749 746 743 747 754 759 757 754 753 755 757 758 760 762 764 765 766 767 768 769 770 771 772 773 774 776 777 778 780 782 783 786 788 789 792 795 798 799 799 800 801 802 803 804 804 806 808 809 811 811 812 813 814 815 815 816 817 817 817 818 818 819 820 821 822 823 824 826 827 827 828 828 830 831 832 832 832 833 833 833 834 834 835 836 836 837 837 837
753 756 758 757 758 753 747 748 749 748 746 741 748 761 763 756 754 755 755 756 759 763 764 764 766 767 768 769 770 771 772 772 774 775 777 779 780 781 782 782 785 786 787 789 793 797 799 799 799 800 802 803 804 805 806 808 810 811 812 812 813 814 815 815 816 816 817 817 817 818 819 819 820 821 821 823 824 825 827 827 827 828 830 831 831 831 831 831 832 833 833 834 835 836 836 837 837
756 759 762 767 768 757 746 748 750 746 745 742 747 761 761 753 754 756 755 755 758 762 764 765 766 767 768 769 770 771 772 773 775 776 778 780 781 781 781 783 786 788 788 790 793 796 798 798 799 800 801 803 804 805 807 809 810 811 812 812 813 814 815 815 816 816 817 817 817 818 819 819 820 820 821 822 823 824 825 826 827 828 828 829 829 829 829 830 831 832 833 834 835 835 836 836 836
762 764 767 773 771 760 749 748 750 746 745 744 748 761 762 752 752 754 754 756 758 761 764 765 766 768 768 769 770 772 774 775 776 777 778 780 781 781 782 784 788 789 787 789 792 795 797 798 798 800 801 803 804 806 808 809 810 811 812 813 813 814 815 815 815 816 817 817 818 819 819 819 819 820 821 822 822 823 824 826 827 827 827 828 827 827 828 829 830 831 832 833 834 834 835 836 836
767 768 767 770 769 765 756 747 747 746 745 746 748 758 760 752 752 754 755 757 759 762 764 765 767 768 769 770 771 773 774 775 776 777 778 780 781 781 783 785 789 790 787 787 791 793 795 797 798 800 801 803 805 807 808 809 810 811 812 813 814 814 815 815 815 816 817 818 818 819 819 819 819 820 820 821 822 822 824 825 826 826 826 825 825 825 827 829 830 831 832 832 833 833 834 835 835
769 770 768 769 770 768 761 750 746 745 747 748 748 753 753 752 755 755 754 757 760 763 764 765 767 768 770 771 772 773 774 775 775 776 778 779 780 780 783 786 788 790 787 787 790 792 794 796 798 800 803 804 806 807 808 809 810 811 812 813 814 815 815 815 815 816 817 818 819 819 820 820 819 820 820 821 821 822 824 825 825 825 824 823 824 826 828 830 831 832 832 832 832 833 833 834 835
767 769 768 770 770 768 764 755 746 745 748 750 752 753 751 754 758 756 755 756 760 763 764 766 769 770 771 772 773 774 775 775 774 776 778 780 780 780 782 785 785 786 787 786 788 791 793 795 798 801 803 804 806 807 808 808 810 811 812 813 814 814 815 815 816 817 817 818 819 819 820 820 820 820 821 821 822 823 824 825 825 824 823 823 825 827 829 829 830 831 833 833 833 833 833 834 835
763 766 768 769 768 765 761 754 747 748 752 752 753 753 750 756 761 757 755 757 760 763 765 767 769 770 772 773 774 774 774 774 774 776 778 779 781 780 781 783 784 784 785 786 788 790 793 795 798 801 803 805 806 806 807 808 809 810 812 812 813 814 815 815 816 817 818 818 819 820 820 820 821 821 821 822 822 823 824 824 824 823 823 823 825 827 828 829 829 830 832 834 833 832 833 834 835
763 766 768 769 770 764 756 750 746 749 753 753 754 751 750 757 761 758 756 758 761 764 765 767 768 770 771 772 773 773 773 773 774 775 777 779 780 781 782 782 783 784 785 787 789 791 793 795 797 800 803 804 805 805 806 807 808 809 811 812 813 814 815 816 816 817 818 819 819 820 821 821 821 821 822 822 823 823 824 824 824 823 823 824 825 826 828 829 829 829 831 833 832 832 833 834 834
764 767 768 768 770 761 751 748 748 749 750 755 759 754 754 761 762 759 758 759 761 762 764 766 767 769 770 771 772 772 773 773 774 775 777 778 779 781 783 784 784 784 785 787 789 790 793 795 797 800 801 803 804 805 806 806 807 808 810 812 813 814 816 816 817 818 819 819 820 821 821 821 822 822 822 823 823 824 824 824 824 824 824 824 825 826 828 829 829 829 830 832 832 832 833 834 834
765 770 769 766 766 760 752 748 750 751 747 752 760 757 760 766 763 762 760 759 761 761 763 765 766 768 769 769 769 770 772 773 774 775 776 777 779 781 782 783 784 785 786 787 789 790 793 795 797 799 800 802 803 804 805 805 807 808 810 812 813 815 816 817 818 819 819 820 820 821 822 822 823 823 824 824 824 824 824 825 825 825 825 825 826 826 828 828 828 829 829 830 831 831 833 833 834
767 768 766 763 762 761 755 748 749 752 750 753 757 757 762 765 764 764 762 761 762 763 765 766 767 768 768 769 769 770 772 772 773 774 776 777 777 779 780 782 784 785 786 786 788 790 791 794 796 797 799 800 802 803 804 805 806 808 810 812 814 815 816 817 819 820 820 821 821 822 822 823 824 824 825 825 825 825 825 825 825 825 825 825 826 826 827 827 828 828 829 829 830 831 832 833 833
766 765 761 758 756 756 755 752 750 751 754 755 753 755 762 764 766 767 763 762 763 764 766 767 768 770 770 771 770 771 772 772 773 774 775 776 776 778 779 780 782 783 785 785 787 788 790 792 794 795 797 799 800 801 802 804 806 808 810 812 814 815 816 818 819 820 821 821 821 822 822 823 824 825 826 826 826 826 826 826 826 825 825 825 825 825 826 827 828 829 829 830 830 830 831 832 833
763 758 753 751 750 750 752 755 755 752 756 759 757 763 768 764 763 766 763 762 764 766 768 768 769 770 770 772 772 771 771 771 773 775 776 776 777 778 779 779 781 782 783 785 786 788 789 791 792 793 795 797 799 800 801 803 805 807 809 811 813 815 816 818 819 820 821 822 822 822 823 824 825 825 826 826 827 827 827 827 827 826 826 826 825 825 826 827 828 829 830 830 830 830 831 831 832
763 753 750 751 751 750 750 751 754 756 760 763 762 765 772 766 758 763 766 764 766 768 768 768 768 768 769 771 771 771 771 772 773 774 775 776 777 777 777 778 779 781 783 785 786 788 788 789 791 792 794 796 798 800 801 803 804 807 809 811 813 814 816 817 819 820 821 822 822 822 823 824 825 826 827 827 827 828 828 828 828 827 827 827 827 827 827 827 828 829 829 830 831 831 831 831 832
756 750 751 752 749 749 750 749 753 760 761 762 762 759 767 770 761 765 768 764 767 769 768 768 766 766 767 768 770 770 769 771 772 773 774 775 775 775 775 777 779 781 783 785 787 788 789 791 792 794 795 797 799 800 802 803 804 807 809 812 814 815 817 818 819 820 821 822 823 823 823 824 826 827 828 828 828 828 829 828 828 828 828 828 828 828 828 829 829 830 830 831 831 832 832 832 832
747 749 753 751 749 751 752 750 754 765 764 760 763 762 767 774 766 766 770 765 765 766 765 767 765 764 765 765 767 768 768 769 771 772 773 773 774 774 776 778 780 782 783 786 789 792 795 797 796 797 797 798 800 802 804 805 806 808 810 813 815 817 819 819 820 821 821 822 823 823 824 825 826 827 828 829 829 829 829 829 829 829 829 829 829 830 830 830 831 831 831 831 832 832 832 832 832
745 751 754 753 756 758 757 756 755 762 767 765 769 770 770 775 768 765 768 766 764 762 761 764 764 763 763 764 765 766 768 769 769 771 772 772 774 775 777 779 781 783 785 788 791 795 799 800 798 797 798 799 801 803 805 807 807 809 811 814 816 818 819 820 821 822 822 823 824 824 824 825 826 827 828 829 830 830 830 830 830 830 829 830 830 830 831 831 832 832 832 832 832 832 832 832 832
747 747 749 750 755 757 759 765 760 764 773 771 775 776 771 775 774 769 768 766 766 763 759 758 760 761 762 762 763 765 767 768 769 770 772 773 775 776 778 780 782 785 787 789 790 792 795 795 796 797 798 800 802 804 806 807 807 809 812 814 816 817 818 819 820 822 822 823 824 825 825 826 826 827 829 829 830 831 831 831 830 830 830 830 831 831 832 832 833 833 833 833 833 833 832 832 832
747 744 749 754 760 761 763 768 766 773 781 775 778 780 772 773 777 776 772 768 769 768 761 757 757 758 759 760 761 763 765 766 768 770 772 773 775 777 779 781 784 786 787 789 789 790 790 791 795 797 799 802 804 806 807 807 807 809 811 813 815 817 818 819 820 821 822 823 824 825 825 826 827 828 829 830 831 831 832 832 831 831 831 832 832 832 833 833 833 834 834 834 834 834 833 833 833
747 748 754 763 773 776 776 780 780 782 781 776 781 781 772 770 773 777 777 769 769 769 765 763 761 758 759 761 762 763 765 766 769 772 774 774 775 776 779 781 784 786 787 788 788 789 789 791 794 797 800 804 806 808 809 807 807 808 810 812 814 816 818 819 821 822 822 823 825 825 826 827 828 829 830 831 832 832 833 833 833 833 833 833 833 833 834 834 834 835 835 835 835 835 834 834 834
746 748 754 764 779 786 790 798 799 789 779 779 782 777 771 769 770 775 775 769 767 767 767 766 762 759 760 761 763 764 766 768 770 774 778 780 778 776 779 782 784 785 787 787 787 788 789 790 794 798 803 805 806 808 808 808 808 808 810 812 814 816 818 819 821 822 823 824 825 826 827 828 829 830 831 832 832 833 834 834 834 834 834 835 835 835 835 835 835 835 836 836 836 836 835 834 834
748 749 750 757 766 773 784 790 786 783 782 781 779 775 774 772 769 771 770 767 767 766 766 766 763 762 763 763 765 767 769 769 770 772 777 784 785 781 780 782 783 784 785 786 787 787 789 793 797 802 806 807 807 808 808 808 809 810 812 813 814 816 817 819 820 822 823 824 826 827 828 829 830 831 832 833 833 834 835 835 836 836 836 837 836 836 836 836 836 836 836 836 836 836 835 835 835
754 755 751 754 752 755 777 789 783 782 783 783 781 779 780 775 770 770 768 767 768 767 767 766 765 766 766 767 770 771 772 771 771 771 771 779 786 785 782 781 781 782 783 785 785 787 791 795 798 802 807 808 808 808 808 807 808 810 812 813 814 816 817 819 820 822 824 825 826 828 829 830 831 832 833 834 835 835 836 837 838 838 839 839 839 839 838 837 837 836 836 836 836 836 836 835 835
753 755 750 754 750 749 770 791 794 787 781 786 791 784 779 777 771 769 769 769 769 769 769 768 767 766 767 770 771 772 773 774 777 777 772 775 783 785 782 781 781 781 783 784 785 789 794 796 799 804 808 807 806 806 806 806 807 808 811 813 815 816 818 819 821 822 824 826 827 828 830 831 832 833 834 835 836 837 837 838 839 840 840 841 841 841 840 840 839 838 838 838 837 837 837 836 836
745 749 747 752 755 753 761 778 792 791 784 788 793 789 784 781 777 772 771 771 770 770 771 771 770 767 767 769 768 768 770 773 780 783 779 779 782 782 782 781 781 781 782 784 786 791 795 797 800 803 804 802 802 804 805 805 806 808 811 813 814 816 817 819 821 822 825 826 827 829 830 831 832 833 834 835 836 837 838 839 839 841 842 842 843 842 842 842 841 840 840 839 839 839 839 839 838
738 739 741 747 754 757 762 773 783 788 792 793 793 797 792 781 777 774 771 770 769 770 772 771 770 768 769 770 768 768 771 773 780 784 784 782 780 780 781 781 780 780 782 784 787 792 794 797 800 801 800 800 801 803 804 804 806 807 810 811 813 815 816 819 820 822 824 826 827 828 830 831 832 833 834 835 836 837 838 839 839 841 841 842 843 843 843 843 842 842 842 841 841 841 841 840 840
739 739 743 747 752 757 763 769 771 775 791 797 794 796 788 774 774 772 767 768 768 768 771 771 772 772 772 773 771 772 774 776 780 784 784 782 780 780 780 780 780 781 783 786 788 792 794 797 799 799 799 800 801 802 802 804 805 806 809 810 811 813 815 818 819 820 823 825 826 827 828 830 832 833 834 835 836 837 837 838 839 840 841 842 843 843 843 843 843 843 843 843 843 843 842 842 841
742 742 746 750 756 761 762 769 774 771 780 791 792 792 782 771 773 769 765 768 767 767 771 773 774 774 774 774 772 772 774 777 782 783 782 782 781 782 781 780 781 782 785 787 789 792 794 796 797 797 798 799 800 801 801 803 805 806 808 809 810 811 813 816 818 819 822 824 826 826 827 830 831 832 834 835 836 836 837 838 839 840 841 842 843 843 843 843 843 843 844 843 844 844 844 843 843
741 743 748 752 756 759 760 771 782 775 775 784 785 782 776 775 779 774 768 769 768 769 773 774 776 776 776 776 775 775 776 779 782 782 782 783 782 782 782 782 783 784 786 788 790 792 794 795 797 797 798 798 799 800 801 803 806 806 807 808 809 811 813 815 818 819 821 823 825 825 826 828 830 832 833 834 835 836 836 837 838 840 841 842 843 843 843 844 843 843 843 843 844 844 844 844 844